Tracking 27188 objects as of 1-Apr-2023
HD Live streaming from Space Station
objects crossing your sky now

COSMOS 1275 DEB

Track COSMOS 1275 DEB now!
10-day predictions


NORAD ID: 27734
Int'l Code: 1981-053MV
Perigee: 836.5 km
Apogee: 996.1 km
Inclination: 83.1 °
Period: 103.2 minutes
Semi major axis: 7287 km
RCS: 0.0056 m2 (small)
Launch date: June 4, 1981
Source: Commonwealth of Independent States (former USSR) (CIS)
Launch site: PLESETSK MISSILE AND SPACE COMPLEX (PKMTR)

Note: This is SATELLITE DEBRIS
Your satellite tracking list
Your tracking list is empty




NASA's NSSDC Master Catalog

Two Line Element Set (TLE):
1 27734U 81053MP  23091.39526925  .00006035  00000-0  42099-2 0  9996
2 27734  83.1201 233.3063 0109519 153.4280 207.2561 13.95584739392289
Source of the keplerian elements: AFSPC